Location: Newark
(5.8900°S, 42.6378°W)
Time: 20:44:33
(UTC+00:00)

deb Explorer IX - Pass Details

Date: 25 October 2019
Orbit: 546 x 1105 km, 38.8° (Epoch: 20 November)

Event Time Altitude Azimuth Distance (km) Brightness Sun altitude
Rises 00:05:58 0° 287° (WNW) 3,903 ? -48.9°
Reaches altitude 10° 00:09:07 10° 277° (W) 2,957 ? -49.6°
Enters shadow 00:10:15 14° 271° (W) 2,644 ? -49.9°
